Data supplied by UK-AIR on 14/6/2016
All Data GMT hour ending 
Status: R =Ratified P=Provisional,P*=As supplied
,,High Muffles,,,,,,,,,,,,,,,,,,,,,,,
Date,time,"Nitric oxide",status,unit,"Nitrogen dioxide",status,unit,"Nitrogen oxides as nitrogen dioxide",status,unit,"Ozone",status,unit
 
01-01-2015,01:00,0.95044,R,ugm-3,11.19131,R,ugm-3,12.64864,R,ugm-3,51.41123,R,ugm-3
01-01-2015,02:00,0.37513,R,ugm-3,8.17737,R,ugm-3,8.75256,R,ugm-3,56.50692,R,ugm-3
01-01-2015,03:00,1.05023,R,ugm-3,6.57804,R,ugm-3,8.18837,R,ugm-3,61.83128,R,ugm-3
01-01-2015,04:00,1.05054,R,ugm-3,7.14175,R,ugm-3,8.75256,R,ugm-3,61.92907,R,ugm-3
01-01-2015,05:00,0.56284,R,ugm-3,5.12215,R,ugm-3,5.98517,R,ugm-3,60.45923,R,ugm-3
01-01-2015,06:00,0.93766,R,ugm-3,4.99975,R,ugm-3,6.43748,R,ugm-3,61.04747,R,ugm-3
01-01-2015,07:00,0.78798,R,ugm-3,5.22925,R,ugm-3,6.43748,R,ugm-3,58.94001,R,ugm-3
01-01-2015,08:00,1.05023,R,ugm-3,5.33492,R,ugm-3,6.94524,R,ugm-3,57.71564,R,ugm-3
01-01-2015,09:00,0.71283,R,ugm-3,5.68299,R,ugm-3,6.77599,R,ugm-3,56.68736,R,ugm-3
01-01-2015,10:00,0.90024,R,ugm-3,5.79105,R,ugm-3,7.17140,R,ugm-3,57.03012,R,ugm-3
01-01-2015,11:00,1.05023,R,ugm-3,6.23905,R,ugm-3,7.84938,R,ugm-3,59.18498,R,ugm-3
01-01-2015,12:00,0.90055,R,ugm-3,6.41166,R,ugm-3,7.79248,R,ugm-3,61.58630,R,ugm-3
01-01-2015,13:00,1.05054,R,ugm-3,5.73033,R,ugm-3,7.34113,R,ugm-3,65.06481,R,ugm-3
01-01-2015,14:00,0.82571,R,ugm-3,5.51039,R,ugm-3,6.77647,R,ugm-3,70.55249,R,ugm-3
01-01-2015,15:00,1.12507,R,ugm-3,7.08390,R,ugm-3,8.80898,R,ugm-3,73.83491,R,ugm-3
01-01-2015,16:00,0.60026,R,ugm-3,6.70283,R,ugm-3,7.62323,R,ugm-3,71.87414,R,ugm-3
01-01-2015,17:00,0.48769,R,ugm-3,6.42361,R,ugm-3,7.17140,R,ugm-3,70.65028,R,ugm-3
01-01-2015,18:00,1.05023,R,ugm-3,3.69734,R,ugm-3,5.30767,R,ugm-3,72.56066,R,ugm-3
01-01-2015,19:00,0.56284,R,ugm-3,2.75113,R,ugm-3,3.61415,R,ugm-3,76.92126,R,ugm-3
01-01-2015,20:00,1.01281,R,ugm-3,2.73870,R,ugm-3,4.29165,R,ugm-3,76.23524,R,ugm-3
01-01-2015,21:00,0.82509,R,ugm-3,3.36504,R,ugm-3,4.63016,R,ugm-3,74.07989,R,ugm-3
01-01-2015,22:00,0.56284,R,ugm-3,3.76715,R,ugm-3,4.63016,R,ugm-3,71.38519,R,ugm-3
01-01-2015,23:00,0.67541,R,ugm-3,2.23954,R,ugm-3,3.27516,R,ugm-3,72.90392,R,ugm-3
01-01-2015,24:00,0.78798,R,ugm-3,1.38895,R,ugm-3,2.59718,R,ugm-3,77.36231,R,ugm-3
02-01-2015,01:00,0.80035,R,ugm-3,1.56060,R,ugm-3,2.78779,R,ugm-3,81.15248,R,ugm-3
02-01-2015,02:00,1.20032,R,ugm-3,0.72101,R,ugm-3,2.56148,R,ugm-3,84.87912,R,ugm-3
02-01-2015,03:00,1.08796,R,ugm-3,0.42266,R,ugm-3,2.09084,R,ugm-3,89.21178,R,ugm-3
02-01-2015,04:00,1.20053,R,ugm-3,0.53311,R,ugm-3,2.37389,R,ugm-3,87.98542,R,ugm-3
02-01-2015,05:00,1.27536,R,ugm-3,0.07889,R,ugm-3,2.03442,R,ugm-3,87.83874,R,ugm-3
02-01-2015,06:00,1.20021,R,ugm-3,0.13770,R,ugm-3,1.97800,R,ugm-3,87.98542,R,ugm-3
02-01-2015,07:00,1.27536,R,ugm-3,0.19173,R,ugm-3,2.14726,R,ugm-3,87.39669,R,ugm-3
02-01-2015,08:00,0.90024,R,ugm-3,0.37198,R,ugm-3,1.75233,R,ugm-3,86.21973,R,ugm-3
02-01-2015,09:00,1.27536,R,ugm-3,0.41788,R,ugm-3,2.37341,R,ugm-3,86.36741,R,ugm-3
02-01-2015,10:00,1.12538,R,ugm-3,0.70476,R,ugm-3,2.43031,R,ugm-3,85.09216,R,ugm-3
02-01-2015,11:00,0.86282,R,ugm-3,0.59813,R,ugm-3,1.92111,R,ugm-3,86.26912,R,ugm-3
02-01-2015,12:00,0.90024,R,ugm-3,0.71049,R,ugm-3,2.09084,R,ugm-3,87.59277,R,ugm-3
02-01-2015,13:00,0.90024,R,ugm-3,0.76739,R,ugm-3,2.14774,R,ugm-3,87.83824,R,ugm-3
02-01-2015,14:00,0.93797,R,ugm-3,0.93569,R,ugm-3,2.37389,R,ugm-3,89.65333,R,ugm-3
02-01-2015,15:00,1.16248,R,ugm-3,0.76022,R,ugm-3,2.54267,R,ugm-3,92.64488,R,ugm-3
02-01-2015,16:00,1.27536,R,ugm-3,1.03944,R,ugm-3,2.99498,R,ugm-3,89.30957,R,ugm-3
02-01-2015,17:00,1.57565,R,ugm-3,1.03132,R,ugm-3,3.44728,R,ugm-3,87.20111,R,ugm-3
02-01-2015,18:00,1.46308,R,ugm-3,1.43007,R,ugm-3,3.67343,R,ugm-3,87.05393,R,ugm-3
02-01-2015,19:00,1.16280,R,ugm-3,0.98589,R,ugm-3,2.76882,R,ugm-3,85.28824,R,ugm-3
02-01-2015,20:00,1.16280,R,ugm-3,1.09921,R,ugm-3,2.88214,R,ugm-3,87.98542,R,ugm-3
02-01-2015,21:00,1.16311,R,ugm-3,1.26894,R,ugm-3,3.05235,R,ugm-3,85.77868,R,ugm-3
02-01-2015,22:00,0.93797,R,ugm-3,1.61367,R,ugm-3,3.05187,R,ugm-3,84.55232,R,ugm-3
02-01-2015,23:00,1.01281,R,ugm-3,3.25029,R,ugm-3,4.80324,R,ugm-3,83.52254,R,ugm-3
02-01-2015,24:00,1.01312,R,ugm-3,7.26320,R,ugm-3,8.81663,R,ugm-3,75.67545,R,ugm-3
03-01-2015,01:00,0.90097,R,ugm-3,6.60641,R,ugm-3,7.98788,R,ugm-3,72.78185,R,ugm-3
03-01-2015,02:00,1.27661,R,ugm-3,5.67200,R,ugm-3,7.62944,R,ugm-3,70.62383,R,ugm-3
03-01-2015,03:00,1.08858,R,ugm-3,5.05617,R,ugm-3,6.72531,R,ugm-3,71.40864,R,ugm-3
03-01-2015,04:00,1.12662,R,ugm-3,5.05426,R,ugm-3,6.78173,R,ugm-3,76.16589,R,ugm-3
03-01-2015,05:00,1.16404,R,ugm-3,5.27946,R,ugm-3,7.06430,R,ugm-3,71.01599,R,ugm-3
03-01-2015,06:00,1.01374,R,ugm-3,4.83145,R,ugm-3,6.38584,R,ugm-3,73.56649,R,ugm-3
03-01-2015,07:00,0.90086,R,ugm-3,4.04398,R,ugm-3,5.42528,R,ugm-3,74.98893,R,ugm-3
03-01-2015,08:00,0.78829,R,ugm-3,3.36887,R,ugm-3,4.57757,R,ugm-3,77.29346,R,ugm-3
03-01-2015,09:00,0.90117,R,ugm-3,2.51781,R,ugm-3,3.89959,R,ugm-3,79.99165,R,ugm-3
03-01-2015,10:00,1.23919,R,ugm-3,2.16925,R,ugm-3,4.06932,R,ugm-3,82.00232,R,ugm-3
03-01-2015,11:00,0.82602,R,ugm-3,2.68945,R,ugm-3,3.95601,R,ugm-3,80.92314,R,ugm-3
03-01-2015,12:00,0.97601,R,ugm-3,3.02510,R,ugm-3,4.52163,R,ugm-3,76.41136,R,ugm-3
03-01-2015,13:00,1.31403,R,ugm-3,2.67607,R,ugm-3,4.69088,R,ugm-3,73.81146,R,ugm-3
03-01-2015,14:00,0.97632,R,ugm-3,4.49342,R,ugm-3,5.99043,R,ugm-3,72.19345,R,ugm-3
03-01-2015,15:00,1.42660,R,ugm-3,9.28519,R,ugm-3,11.47261,R,ugm-3,69.59405,R,ugm-3
03-01-2015,16:00,1.50175,R,ugm-3,15.27370,R,ugm-3,17.57635,R,ugm-3,62.38508,R,ugm-3
03-01-2015,17:00,1.61463,R,ugm-3,17.98228,R,ugm-3,20.45801,R,ugm-3,60.91276,R,ugm-3
03-01-2015,18:00,1.68947,R,ugm-3,15.04181,R,ugm-3,17.63229,R,ugm-3,63.26768,R,ugm-3
03-01-2015,19:00,1.27661,R,ugm-3,12.39730,R,ugm-3,14.35475,R,ugm-3,65.62161,R,ugm-3
03-01-2015,20:00,1.46433,R,ugm-3,11.09202,R,ugm-3,13.33730,R,ugm-3,71.26096,R,ugm-3
03-01-2015,21:00,1.31403,R,ugm-3,9.51469,R,ugm-3,11.52951,R,ugm-3,73.07605,R,ugm-3
03-01-2015,22:00,1.31403,R,ugm-3,2.84532,R,ugm-3,4.86014,R,ugm-3,81.51187,R,ugm-3
03-01-2015,23:00,1.50175,R,ugm-3,1.20105,R,ugm-3,3.50370,R,ugm-3,88.42697,R,ugm-3
03-01-2015,24:00,1.31403,R,ugm-3,0.69758,R,ugm-3,2.71240,R,ugm-3,87.49498,R,ugm-3
04-01-2015,01:00,0.95127,R,ugm-3,0.72866,R,ugm-3,2.18726,R,ugm-3,88.95899,R,ugm-3
04-01-2015,02:00,0.90086,R,ugm-3,0.37246,R,ugm-3,1.75376,R,ugm-3,91.31458,R,ugm-3
04-01-2015,03:00,1.65205,R,ugm-3,0.35142,R,ugm-3,2.88453,R,ugm-3,91.26636,R,ugm-3
04-01-2015,04:00,1.05116,R,ugm-3,0.25436,R,ugm-3,1.86612,R,ugm-3,92.98465,R,ugm-3
04-01-2015,05:00,1.16373,R,ugm-3,0.02534,R,ugm-3,1.80970,R,ugm-3,95.04621,R,ugm-3
04-01-2015,06:00,1.08889,R,ugm-3,-0.02917,R,ugm-3,1.64045,R,ugm-3,95.78312,R,ugm-3
04-01-2015,07:00,1.05116,R,ugm-3,-0.02677,R,ugm-3,1.50833,R,ugm-3,96.66672,R,ugm-3
04-01-2015,08:00,1.08889,R,ugm-3,-0.02917,R,ugm-3,1.64045,R,ugm-3,88.90993,R,ugm-3
04-01-2015,09:00,1.46402,R,ugm-3,0.18790,R,ugm-3,2.43270,R,ugm-3,86.35693,R,ugm-3
04-01-2015,10:00,1.08858,R,ugm-3,0.02773,R,ugm-3,1.69687,R,ugm-3,90.57884,R,ugm-3
04-01-2015,11:00,0.52543,R,ugm-3,1.00406,R,ugm-3,1.80970,R,ugm-3,92.14995,R,ugm-3
04-01-2015,12:00,0.56316,R,ugm-3,2.07793,R,ugm-3,2.94143,R,ugm-3,86.89677,R,ugm-3
04-01-2015,13:00,0.75056,R,ugm-3,3.88285,R,ugm-3,5.03370,R,ugm-3,85.71881,R,ugm-3
04-01-2015,14:00,1.57690,R,ugm-3,7.31053,R,ugm-3,9.72841,R,ugm-3,76.73417,R,ugm-3
04-01-2015,15:00,2.06491,R,ugm-3,16.34805,R,ugm-3,19.51419,R,ugm-3,63.77359,R,ugm-3
04-01-2015,16:00,2.02749,R,ugm-3,27.83070,R,ugm-3,30.93947,R,ugm-3,50.17439,R,ugm-3
04-01-2015,17:00,1.91461,R,ugm-3,34.11278,R,ugm-3,37.04847,R,ugm-3,37.75316,R,ugm-3
04-01-2015,18:00,1.80204,R,ugm-3,35.92583,R,ugm-3,38.68892,R,ugm-3,37.55708,R,ugm-3
04-01-2015,19:00,1.65174,R,ugm-3,38.70135,R,ugm-3,41.23398,R,ugm-3,32.74545,R,ugm-3
04-01-2015,20:00,1.61432,R,ugm-3,39.43766,R,ugm-3,41.91292,R,ugm-3,34.66032,R,ugm-3
04-01-2015,21:00,1.83977,R,ugm-3,40.10991,R,ugm-3,42.93084,R,ugm-3,34.80800,R,ugm-3
04-01-2015,22:00,1.61432,R,ugm-3,36.89213,R,ugm-3,39.36738,R,ugm-3,32.99092,R,ugm-3
04-01-2015,23:00,1.46402,R,ugm-3,36.50006,R,ugm-3,38.74486,R,ugm-3,30.09466,R,ugm-3
04-01-2015,24:00,1.27661,R,ugm-3,25.64519,R,ugm-3,27.60263,R,ugm-3,36.62409,R,ugm-3
05-01-2015,01:00,1.40280,R,ugm-3,14.29020,R,ugm-3,16.44113,R,ugm-3,46.73730,R,ugm-3
05-01-2015,02:00,1.24013,R,ugm-3,14.33228,R,ugm-3,16.23378,R,ugm-3,50.92760,R,ugm-3
05-01-2015,03:00,0.93953,R,ugm-3,16.99878,R,ugm-3,18.43937,R,ugm-3,43.64446,R,ugm-3
05-01-2015,04:00,1.12694,R,ugm-3,17.84219,R,ugm-3,19.57013,R,ugm-3,36.32972,R,ugm-3
05-01-2015,05:00,0.93953,R,ugm-3,17.67724,R,ugm-3,19.11783,R,ugm-3,34.16988,R,ugm-3
05-01-2015,06:00,1.27755,R,ugm-3,15.17903,R,ugm-3,17.13791,R,ugm-3,34.16938,R,ugm-3
05-01-2015,07:00,0.78892,R,ugm-3,13.10063,R,ugm-3,14.31028,R,ugm-3,35.88768,R,ugm-3
05-01-2015,08:00,0.97695,R,ugm-3,12.07696,R,ugm-3,13.57493,R,ugm-3,36.23193,R,ugm-3
05-01-2015,09:00,1.16498,R,ugm-3,10.31794,R,ugm-3,12.10421,R,ugm-3,40.11008,R,ugm-3
05-01-2015,10:00,1.80360,R,ugm-3,12.33706,R,ugm-3,15.10253,R,ugm-3,42.61368,R,ugm-3
05-01-2015,11:00,2.93053,R,ugm-3,14.22900,R,ugm-3,18.72242,R,ugm-3,39.02991,R,ugm-3
05-01-2015,12:00,3.11856,R,ugm-3,15.41140,R,ugm-3,20.19313,R,ugm-3,40.50273,R,ugm-3
05-01-2015,13:00,4.58414,R,ugm-3,19.66911,R,ugm-3,26.69802,R,ugm-3,36.96785,R,ugm-3
05-01-2015,14:00,2.78054,R,ugm-3,18.70090,R,ugm-3,22.96434,R,ugm-3,43.35010,R,ugm-3
05-01-2015,15:00,2.51768,R,ugm-3,22.72385,R,ugm-3,26.58423,R,ugm-3,46.59012,R,ugm-3
05-01-2015,16:00,3.34401,R,ugm-3,36.84144,R,ugm-3,41.96886,R,ugm-3,26.46198,R,ugm-3
05-01-2015,17:00,2.93084,R,ugm-3,42.16967,R,ugm-3,46.66357,R,ugm-3,18.21376,R,ugm-3
05-01-2015,18:00,2.14193,R,ugm-3,41.00352,R,ugm-3,44.28776,R,ugm-3,20.07924,R,ugm-3
05-01-2015,19:00,1.87843,R,ugm-3,42.03101,R,ugm-3,44.91124,R,ugm-3,20.52128,R,ugm-3
05-01-2015,20:00,1.09014,R,ugm-3,33.79292,R,ugm-3,35.46444,R,ugm-3,26.60917,R,ugm-3
05-01-2015,21:00,1.23982,R,ugm-3,28.64208,R,ugm-3,30.54310,R,ugm-3,32.30340,R,ugm-3
05-01-2015,22:00,1.12694,R,ugm-3,23.66814,R,ugm-3,25.39609,R,ugm-3,34.41535,R,ugm-3
05-01-2015,23:00,1.12756,R,ugm-3,19.70783,R,ugm-3,21.43673,R,ugm-3,38.09741,R,ugm-3
05-01-2015,24:00,0.71377,R,ugm-3,16.04396,R,ugm-3,17.13839,R,ugm-3,42.81026,R,ugm-3
06-01-2015,01:00,1.35249,R,ugm-3,11.51325,R,ugm-3,13.58704,R,ugm-3,46.85039,R,ugm-3
06-01-2015,02:00,0.93953,R,ugm-3,14.01384,R,ugm-3,15.45443,R,ugm-3,47.96465,R,ugm-3
06-01-2015,03:00,0.93922,R,ugm-3,15.25984,R,ugm-3,16.69995,R,ugm-3,45.60574,R,ugm-3
06-01-2015,04:00,0.97726,R,ugm-3,11.40854,R,ugm-3,12.90698,R,ugm-3,49.68445,R,ugm-3
06-01-2015,05:00,1.08952,R,ugm-3,8.85918,R,ugm-3,10.52975,R,ugm-3,55.68003,R,ugm-3
06-01-2015,06:00,0.90180,R,ugm-3,7.84460,R,ugm-3,9.22733,R,ugm-3,55.87711,R,ugm-3
06-01-2015,07:00,0.78923,R,ugm-3,8.07410,R,ugm-3,9.28423,R,ugm-3,55.82721,R,ugm-3
06-01-2015,08:00,0.93953,R,ugm-3,9.14510,R,ugm-3,10.58569,R,ugm-3,51.20866,R,ugm-3
06-01-2015,09:00,1.01437,R,ugm-3,11.06859,R,ugm-3,12.62393,R,ugm-3,47.57150,R,ugm-3
06-01-2015,10:00,0.93953,R,ugm-3,13.90101,R,ugm-3,15.34160,R,ugm-3,46.14607,R,ugm-3
06-01-2015,11:00,1.31497,R,ugm-3,15.81590,R,ugm-3,17.83215,R,ugm-3,46.83409,R,ugm-3
06-01-2015,12:00,1.09014,R,ugm-3,9.08390,R,ugm-3,10.75542,R,ugm-3,52.97685,R,ugm-3
06-01-2015,13:00,0.97726,R,ugm-3,1.72842,R,ugm-3,3.22687,R,ugm-3,85.06871,R,ugm-3
06-01-2015,14:00,0.93953,R,ugm-3,1.67296,R,ugm-3,3.11355,R,ugm-3,86.05109,R,ugm-3
06-01-2015,15:00,0.78923,R,ugm-3,2.29930,R,ugm-3,3.50944,R,ugm-3,83.64278,R,ugm-3
06-01-2015,16:00,1.16498,R,ugm-3,2.45948,R,ugm-3,4.24575,R,ugm-3,83.00466,R,ugm-3
06-01-2015,17:00,1.42816,R,ugm-3,2.45230,R,ugm-3,4.64212,R,ugm-3,81.82470,R,ugm-3
06-01-2015,18:00,1.20209,R,ugm-3,3.36457,R,ugm-3,5.20774,R,ugm-3,75.43646,R,ugm-3
06-01-2015,19:00,1.23982,R,ugm-3,2.57136,R,ugm-3,4.47238,R,ugm-3,75.14110,R,ugm-3
06-01-2015,20:00,1.16498,R,ugm-3,1.94979,R,ugm-3,3.73607,R,ugm-3,76.66432,R,ugm-3
06-01-2015,21:00,1.35301,R,ugm-3,3.58642,R,ugm-3,5.66100,R,ugm-3,68.99833,R,ugm-3
06-01-2015,22:00,1.08983,R,ugm-3,6.53740,R,ugm-3,8.20845,R,ugm-3,66.19787,R,ugm-3
06-01-2015,23:00,1.12725,R,ugm-3,15.36742,R,ugm-3,17.09584,R,ugm-3,60.25118,R,ugm-3
06-01-2015,24:00,1.08983,R,ugm-3,27.31337,R,ugm-3,28.98442,R,ugm-3,43.83705,R,ugm-3
07-01-2015,01:00,1.10303,R,ugm-3,30.56621,R,ugm-3,32.25750,R,ugm-3,36.10487,R,ugm-3
07-01-2015,02:00,1.12850,R,ugm-3,20.81948,R,ugm-3,22.54981,R,ugm-3,42.52571,R,ugm-3
07-01-2015,03:00,1.09045,R,ugm-3,15.66529,R,ugm-3,17.33729,R,ugm-3,46.83459,R,ugm-3
07-01-2015,04:00,1.05303,R,ugm-3,13.11593,R,ugm-3,14.73055,R,ugm-3,50.22528,R,ugm-3
07-01-2015,05:00,1.27879,R,ugm-3,12.20318,R,ugm-3,14.16398,R,ugm-3,49.63555,R,ugm-3
07-01-2015,06:00,1.35394,R,ugm-3,9.02939,R,ugm-3,11.10541,R,ugm-3,51.06098,R,ugm-3
07-01-2015,07:00,0.82727,R,ugm-3,8.58999,R,ugm-3,9.85846,R,ugm-3,54.50107,R,ugm-3
07-01-2015,08:00,1.16591,R,ugm-3,10.56369,R,ugm-3,12.35140,R,ugm-3,52.33823,R,ugm-3
07-01-2015,09:00,1.01530,R,ugm-3,13.28805,R,ugm-3,14.84483,R,ugm-3,52.48641,R,ugm-3
07-01-2015,10:00,1.46683,R,ugm-3,17.46830,R,ugm-3,19.71740,R,ugm-3,50.37297,R,ugm-3
07-01-2015,11:00,1.72969,R,ugm-3,20.06738,R,ugm-3,22.71954,R,ugm-3,50.32357,R,ugm-3
07-01-2015,12:00,2.06834,R,ugm-3,21.07814,R,ugm-3,24.24954,R,ugm-3,51.30596,R,ugm-3
07-01-2015,13:00,1.80516,R,ugm-3,20.29115,R,ugm-3,23.05901,R,ugm-3,52.73188,R,ugm-3
07-01-2015,14:00,1.57939,R,ugm-3,15.36885,R,ugm-3,17.79055,R,ugm-3,58.13724,R,ugm-3
07-01-2015,15:00,1.05272,R,ugm-3,14.64688,R,ugm-3,16.26103,R,ugm-3,62.51131,R,ugm-3
07-01-2015,16:00,0.94015,R,ugm-3,12.43938,R,ugm-3,13.88093,R,ugm-3,61.77440,R,ugm-3
07-01-2015,17:00,0.63924,R,ugm-3,11.08820,R,ugm-3,12.06835,R,ugm-3,67.81888,R,ugm-3
07-01-2015,18:00,1.27848,R,ugm-3,10.61772,R,ugm-3,12.57803,R,ugm-3,65.95190,R,ugm-3
07-01-2015,19:00,1.09045,R,ugm-3,13.45539,R,ugm-3,15.12740,R,ugm-3,63.05165,R,ugm-3
07-01-2015,20:00,1.05303,R,ugm-3,13.00357,R,ugm-3,14.61819,R,ugm-3,59.41498,R,ugm-3
07-01-2015,21:00,0.97788,R,ugm-3,9.03943,R,ugm-3,10.53883,R,ugm-3,63.29762,R,ugm-3
07-01-2015,22:00,0.86500,R,ugm-3,3.83026,R,ugm-3,5.15658,R,ugm-3,74.99342,R,ugm-3
07-01-2015,23:00,0.67666,R,ugm-3,3.66483,R,ugm-3,4.70236,R,ugm-3,76.76310,R,ugm-3
07-01-2015,24:00,0.71470,R,ugm-3,1.68013,R,ugm-3,2.77599,R,ugm-3,80.15430,R,ugm-3
08-01-2015,01:00,0.95294,R,ugm-3,0.72930,R,ugm-3,2.19045,R,ugm-3,87.93520,R,ugm-3
08-01-2015,02:00,0.86500,R,ugm-3,1.44968,R,ugm-3,2.77599,R,ugm-3,87.21475,R,ugm-3
08-01-2015,03:00,1.05303,R,ugm-3,1.04853,R,ugm-3,2.66316,R,ugm-3,88.31222,R,ugm-3
08-01-2015,04:00,0.86531,R,ugm-3,0.76930,R,ugm-3,2.09610,R,ugm-3,89.88433,R,ugm-3
08-01-2015,05:00,0.97788,R,ugm-3,0.71002,R,ugm-3,2.20942,R,ugm-3,87.96846,R,ugm-3
08-01-2015,06:00,0.78985,R,ugm-3,1.28233,R,ugm-3,2.49342,R,ugm-3,85.11760,R,ugm-3
08-01-2015,07:00,0.94015,R,ugm-3,1.10877,R,ugm-3,2.55032,R,ugm-3,81.62862,R,ugm-3
08-01-2015,08:00,1.20333,R,ugm-3,1.32728,R,ugm-3,3.17236,R,ugm-3,80.89171,R,ugm-3
08-01-2015,09:00,0.97788,R,ugm-3,2.01338,R,ugm-3,3.51278,R,ugm-3,77.05797,R,ugm-3
08-01-2015,10:00,1.12787,R,ugm-3,1.72699,R,ugm-3,3.45637,R,ugm-3,74.30590,R,ugm-3
08-01-2015,11:00,1.27848,R,ugm-3,1.49653,R,ugm-3,3.45684,R,ugm-3,78.18803,R,ugm-3
08-01-2015,12:00,1.16560,R,ugm-3,1.44203,R,ugm-3,3.22926,R,ugm-3,81.23547,R,ugm-3
08-01-2015,13:00,0.71439,R,ugm-3,1.28424,R,ugm-3,2.37963,R,ugm-3,81.72691,R,ugm-3
08-01-2015,14:00,0.71470,R,ugm-3,1.05713,R,ugm-3,2.15300,R,ugm-3,82.51321,R,ugm-3
08-01-2015,15:00,0.90242,R,ugm-3,1.22257,R,ugm-3,2.60626,R,ugm-3,82.90587,R,ugm-3
08-01-2015,16:00,1.05335,R,ugm-3,1.89720,R,ugm-3,3.51231,R,ugm-3,78.58119,R,ugm-3
08-01-2015,17:00,1.50424,R,ugm-3,1.77289,R,ugm-3,4.07936,R,ugm-3,81.48094,R,ugm-3
08-01-2015,18:00,1.31590,R,ugm-3,2.45900,R,ugm-3,4.47668,R,ugm-3,80.89121,R,ugm-3
08-01-2015,19:00,1.20333,R,ugm-3,4.10470,R,ugm-3,5.94979,R,ugm-3,75.58365,R,ugm-3
08-01-2015,20:00,1.09076,R,ugm-3,5.23977,R,ugm-3,6.91225,R,ugm-3,74.50297,R,ugm-3
08-01-2015,21:00,1.12818,R,ugm-3,14.64449,R,ugm-3,16.37435,R,ugm-3,66.98368,R,ugm-3
08-01-2015,22:00,1.42878,R,ugm-3,19.62273,R,ugm-3,21.81350,R,ugm-3,56.36855,R,ugm-3
08-01-2015,23:00,1.05272,R,ugm-3,9.60458,R,ugm-3,11.21873,R,ugm-3,62.70789,R,ugm-3
08-01-2015,24:00,1.05272,R,ugm-3,3.37126,R,ugm-3,4.98541,R,ugm-3,76.81250,R,ugm-3
09-01-2015,01:00,0.80285,R,ugm-3,2.24719,R,ugm-3,3.47820,R,ugm-3,84.67955,R,ugm-3
09-01-2015,02:00,0.79079,R,ugm-3,1.11260,R,ugm-3,2.32512,R,ugm-3,94.25558,R,ugm-3
09-01-2015,03:00,0.79048,R,ugm-3,1.33971,R,ugm-3,2.55175,R,ugm-3,94.60017,R,ugm-3
09-01-2015,04:00,0.60213,R,ugm-3,0.66459,R,ugm-3,1.58785,R,ugm-3,94.20652,R,ugm-3
09-01-2015,05:00,0.75275,R,ugm-3,0.66077,R,ugm-3,1.81496,R,ugm-3,94.30531,R,ugm-3
09-01-2015,06:00,0.82821,R,ugm-3,0.94191,R,ugm-3,2.21181,R,ugm-3,91.45146,R,ugm-3
09-01-2015,07:00,0.86594,R,ugm-3,0.60005,R,ugm-3,1.92780,R,ugm-3,90.02553,R,ugm-3
09-01-2015,08:00,1.24200,R,ugm-3,0.47765,R,ugm-3,2.38202,R,ugm-3,91.45146,R,ugm-3
09-01-2015,09:00,1.05397,R,ugm-3,0.59574,R,ugm-3,2.21181,R,ugm-3,91.94340,R,ugm-3
09-01-2015,10:00,0.97882,R,ugm-3,1.05092,R,ugm-3,2.55175,R,ugm-3,90.41868,R,ugm-3
09-01-2015,11:00,0.64018,R,ugm-3,1.00263,R,ugm-3,1.98422,R,ugm-3,90.41868,R,ugm-3
09-01-2015,12:00,0.75337,R,ugm-3,1.28329,R,ugm-3,2.43844,R,ugm-3,90.12382,R,ugm-3
09-01-2015,13:00,1.05366,R,ugm-3,0.82285,R,ugm-3,2.43844,R,ugm-3,92.97667,R,ugm-3
09-01-2015,14:00,1.01624,R,ugm-3,1.39039,R,ugm-3,2.94860,R,ugm-3,92.92728,R,ugm-3
09-01-2015,15:00,1.09139,R,ugm-3,2.69280,R,ugm-3,4.36624,R,ugm-3,87.90909,R,ugm-3
09-01-2015,16:00,0.86594,R,ugm-3,4.62634,R,ugm-3,5.95409,R,ugm-3,85.15502,R,ugm-3
09-01-2015,17:00,1.05366,R,ugm-3,10.80276,R,ugm-3,12.41834,R,ugm-3,74.62771,R,ugm-3
09-01-2015,18:00,0.67760,R,ugm-3,5.76571,R,ugm-3,6.80468,R,ugm-3,68.08480,R,ugm-3
09-01-2015,19:00,0.48925,R,ugm-3,1.40425,R,ugm-3,2.15443,R,ugm-3,68.77282,R,ugm-3
09-01-2015,20:00,0.37637,R,ugm-3,1.57733,R,ugm-3,2.15443,R,ugm-3,68.92150,R,ugm-3
09-01-2015,21:00,0.75306,R,ugm-3,1.34066,R,ugm-3,2.49533,R,ugm-3,69.51123,R,ugm-3
09-01-2015,22:00,0.67760,R,ugm-3,1.28568,R,ugm-3,2.32464,R,ugm-3,69.85549,R,ugm-3
09-01-2015,23:00,0.60245,R,ugm-3,1.23069,R,ugm-3,2.15443,R,ugm-3,69.75720,R,ugm-3
09-01-2015,24:00,0.52698,R,ugm-3,1.34640,R,ugm-3,2.15443,R,ugm-3,70.59390,R,ugm-3
10-01-2015,01:00,0.80326,R,ugm-3,1.49239,R,ugm-3,2.72404,R,ugm-3,69.13371,R,ugm-3
10-01-2015,02:00,0.41379,R,ugm-3,1.12503,R,ugm-3,1.75950,R,ugm-3,70.11759,R,ugm-3
10-01-2015,03:00,0.60245,R,ugm-3,1.00645,R,ugm-3,1.93019,R,ugm-3,72.31519,R,ugm-3
10-01-2015,04:00,0.63987,R,ugm-3,0.83528,R,ugm-3,1.81640,R,ugm-3,73.20078,R,ugm-3
10-01-2015,05:00,0.79079,R,ugm-3,0.60339,R,ugm-3,1.81592,R,ugm-3,74.82428,R,ugm-3
10-01-2015,06:00,0.71533,R,ugm-3,0.71958,R,ugm-3,1.81640,R,ugm-3,76.34900,R,ugm-3
10-01-2015,07:00,0.94078,R,ugm-3,0.94143,R,ugm-3,2.38393,R,ugm-3,74.38124,R,ugm-3
10-01-2015,08:00,1.12943,R,ugm-3,0.36816,R,ugm-3,2.09993,R,ugm-3,86.09001,R,ugm-3
10-01-2015,09:00,1.27973,R,ugm-3,0.47813,R,ugm-3,2.44035,R,ugm-3,89.33651,R,ugm-3
10-01-2015,10:00,1.54322,R,ugm-3,0.24432,R,ugm-3,2.61056,R,ugm-3,90.91012,R,ugm-3
10-01-2015,11:00,1.24200,R,ugm-3,0.30887,R,ugm-3,2.21324,R,ugm-3,91.15709,R,ugm-3
10-01-2015,12:00,1.12912,R,ugm-3,0.36863,R,ugm-3,2.09993,R,ugm-3,93.27203,R,ugm-3
10-01-2015,13:00,0.94109,R,ugm-3,0.54315,R,ugm-3,1.98613,R,ugm-3,95.43637,R,ugm-3
10-01-2015,14:00,0.97882,R,ugm-3,0.48578,R,ugm-3,1.98661,R,ugm-3,93.86176,R,ugm-3
10-01-2015,15:00,1.16716,R,ugm-3,0.31030,R,ugm-3,2.09993,R,ugm-3,92.82849,R,ugm-3
10-01-2015,16:00,1.39261,R,ugm-3,0.53215,R,ugm-3,2.66746,R,ugm-3,89.87735,R,ugm-3
10-01-2015,17:00,1.61837,R,ugm-3,0.69663,R,ugm-3,3.17810,R,ugm-3,86.92621,R,ugm-3
10-01-2015,18:00,1.39292,R,ugm-3,0.58857,R,ugm-3,2.72436,R,ugm-3,89.58248,R,ugm-3
10-01-2015,19:00,1.46776,R,ugm-3,0.24671,R,ugm-3,2.49725,R,ugm-3,90.22211,R,ugm-3
10-01-2015,20:00,1.35488,R,ugm-3,0.70332,R,ugm-3,2.78078,R,ugm-3,90.66465,R,ugm-3
10-01-2015,21:00,1.24200,R,ugm-3,0.30887,R,ugm-3,2.21324,R,ugm-3,91.79621,R,ugm-3
10-01-2015,22:00,1.16685,R,ugm-3,0.25436,R,ugm-3,2.04351,R,ugm-3,92.18937,R,ugm-3
10-01-2015,23:00,0.90336,R,ugm-3,0.43095,R,ugm-3,1.81624,R,ugm-3,92.13997,R,ugm-3
10-01-2015,24:00,0.75306,R,ugm-3,0.05738,R,ugm-3,1.13539,R,ugm-3,91.20599,R,ugm-3
11-01-2015,01:00,1.25562,R,ugm-3,0.04208,R,ugm-3,1.96733,R,ugm-3,91.06845,R,ugm-3
11-01-2015,02:00,0.86656,R,ugm-3,-0.02295,R,ugm-3,1.30576,R,ugm-3,92.57919,R,ugm-3
11-01-2015,03:00,1.01749,R,ugm-3,-0.17850,R,ugm-3,1.36234,R,ugm-3,90.95303,R,ugm-3
11-01-2015,04:00,1.05428,R,ugm-3,-0.02725,R,ugm-3,1.58929,R,ugm-3,90.70756,R,ugm-3
11-01-2015,05:00,1.20552,R,ugm-3,,,,,,,92.52963,R,ugm-3
11-01-2015,06:00,1.35613,R,ugm-3,-0.03187,R,ugm-3,1.81624,R,ugm-3,92.18488,R,ugm-3
11-01-2015,07:00,1.16747,R,ugm-3,0.19651,R,ugm-3,1.98661,R,ugm-3,89.96865,R,ugm-3
11-01-2015,08:00,1.43128,R,ugm-3,-0.20798,R,ugm-3,1.98661,R,ugm-3,90.21412,R,ugm-3
11-01-2015,09:00,0.82852,R,ugm-3,0.09228,R,ugm-3,1.36266,R,ugm-3,88.14658,R,ugm-3
11-01-2015,10:00,0.90398,R,ugm-3,0.08989,R,ugm-3,1.47597,R,ugm-3,88.88449,R,ugm-3
11-01-2015,11:00,0.75337,R,ugm-3,0.32082,R,ugm-3,1.47597,R,ugm-3,91.10171,R,ugm-3
11-01-2015,12:00,0.75337,R,ugm-3,0.15013,R,ugm-3,1.30528,R,ugm-3,92.47974,R,ugm-3
11-01-2015,13:00,1.05459,R,ugm-3,-0.02773,R,ugm-3,1.58929,R,ugm-3,93.51401,R,ugm-3
11-01-2015,14:00,0.79110,R,ugm-3,0.26297,R,ugm-3,1.47597,R,ugm-3,92.97218,R,ugm-3
11-01-2015,15:00,,,,,,,,,,92.52913,R,ugm-3
11-01-2015,16:00,,,,,,,,,,90.46109,R,ugm-3
11-01-2015,17:00,,,,,,,,,,89.47621,R,ugm-3
11-01-2015,18:00,,,,,,,,,,,,
11-01-2015,19:00,,,,,,,,,,,,
11-01-2015,20:00,,,,,,,,,,,,
11-01-2015,21:00,,,,,,,,,,,,
11-01-2015,22:00,,,,,,,,,,,,
11-01-2015,23:00,,,,,,,,,,,,
11-01-2015,24:00,,,,,,,,,,,,
12-01-2015,01:00,,,,,,,,,,,,
12-01-2015,02:00,,,,,,,,,,,,
12-01-2015,03:00,,,,,,,,,,,,
12-01-2015,04:00,,,,,,,,,,,,
12-01-2015,05:00,,,,,,,,,,,,
12-01-2015,06:00,,,,,,,,,,,,
12-01-2015,07:00,,,,,,,,,,,,
12-01-2015,08:00,,,,,,,,,,,,
12-01-2015,09:00,,,,,,,,,,,,
12-01-2015,10:00,,,,,,,,,,,,
12-01-2015,11:00,,,,,,,,,,,,
12-01-2015,12:00,,,,,,,,,,,,
12-01-2015,13:00,,,,,,,,,,,,
12-01-2015,14:00,,,,,,,,,,,,
12-01-2015,15:00,,,,,,,,,,,,
12-01-2015,16:00,1.45643,R,ugm-3,0.87210,R,ugm-3,3.10526,R,ugm-3,,,
12-01-2015,17:00,1.09232,R,ugm-3,0.88118,R,ugm-3,2.55606,R,ugm-3,,,
12-01-2015,18:00,1.28035,R,ugm-3,1.61558,R,ugm-3,3.57877,R,ugm-3,,,
12-01-2015,19:00,0.86656,R,ugm-3,2.98828,R,ugm-3,4.31699,R,ugm-3,,,
12-01-2015,20:00,0.90398,R,ugm-3,4.29452,R,ugm-3,5.68060,R,ugm-3,,,
12-01-2015,21:00,0.90398,R,ugm-3,7.30432,R,ugm-3,8.69040,R,ugm-3,,,
12-01-2015,22:00,1.16747,R,ugm-3,13.71597,R,ugm-3,15.50607,R,ugm-3,,,
12-01-2015,23:00,1.13037,R,ugm-3,14.34184,R,ugm-3,16.07504,R,ugm-3,,,
12-01-2015,24:00,1.24293,R,ugm-3,15.53237,R,ugm-3,17.43818,R,ugm-3,,,
13-01-2015,01:00,1.30676,R,ugm-3,16.33976,R,ugm-3,18.34343,R,ugm-3,,,
13-01-2015,02:00,1.28160,R,ugm-3,16.56799,R,ugm-3,18.53308,R,ugm-3,,,
13-01-2015,03:00,1.20614,R,ugm-3,17.99137,R,ugm-3,19.84075,R,ugm-3,,,
13-01-2015,04:00,0.94234,R,ugm-3,16.34901,R,ugm-3,17.79390,R,ugm-3,,,
13-01-2015,05:00,0.97975,R,ugm-3,10.60625,R,ugm-3,12.10852,R,ugm-3,,,
13-01-2015,06:00,0.86656,R,ugm-3,4.75448,R,ugm-3,6.08318,R,ugm-3,,,
13-01-2015,07:00,1.05522,R,ugm-3,0.65599,R,ugm-3,2.27396,R,ugm-3,,,
13-01-2015,08:00,1.16841,R,ugm-3,0.82381,R,ugm-3,2.61534,R,ugm-3,,,
13-01-2015,09:00,1.16841,R,ugm-3,1.73320,R,ugm-3,3.52474,R,ugm-3,,,
13-01-2015,10:00,1.16841,R,ugm-3,1.67631,R,ugm-3,3.46784,R,ugm-3,,,
13-01-2015,11:00,1.01749,R,ugm-3,3.15849,R,ugm-3,4.71862,R,ugm-3,,,
13-01-2015,12:00,0.97975,R,ugm-3,5.83121,R,ugm-3,7.33348,R,ugm-3,,,
13-01-2015,13:00,2.07364,R,ugm-3,11.71454,R,ugm-3,14.89407,R,ugm-3,,,
13-01-2015,14:00,1.80983,R,ugm-3,11.03943,R,ugm-3,13.81447,R,ugm-3,,,
13-01-2015,15:00,2.18652,R,ugm-3,16.08986,R,ugm-3,19.44248,R,ugm-3,,,
13-01-2015,16:00,1.28160,R,ugm-3,20.26294,R,ugm-3,22.22803,R,ugm-3,,,
13-01-2015,17:00,1.58345,R,ugm-3,16.84387,R,ugm-3,19.27178,R,ugm-3,,,
13-01-2015,18:00,1.62118,R,ugm-3,21.50463,R,ugm-3,23.99040,R,ugm-3,,,
13-01-2015,19:00,1.58345,R,ugm-3,18.77645,R,ugm-3,21.20437,R,ugm-3,56.48280,R,ugm-3